{"data":{"norad_id":58925,"intl_designator":"2024-024J","name":"WEIHAI-1 02","alt_names":[],"object_type":"PAYLOAD","status":"ACTIVE","operator":null,"country":"PRC","launch_date":"2024-02-03","launch_site_code":"SCSLA","launch_vehicle":null,"mission":null,"orbit_class":"UNKNOWN","rcs_meters":null,"size_class":null,"mass_kg":null,"dimensions":null,"purposes":[],"wikipedia_slug":null,"has_3d_model":false,"image_url":null,"decayed_at":null,"tle_current":{"epoch":"2026-09-06T07:33:20.143008Z","epoch_age_seconds":1478025,"freshness":"OLD","line1":"1 58925U 24024J   26249.31481647  .09942597  24887-5  34848-3 0  9997","line2":"2 58925  97.2775 346.8455 0013598 271.1309  88.8434 16.43124037182605","mean_motion":16.43124037,"eccentricity":0.0013598,"inclination_deg":97.2775,"raan_deg":346.8455,"arg_perigee_deg":271.1309,"mean_anomaly_deg":88.8434,"bstar":0.00034848,"rev_number":18260,"period_min":87.637936490123,"perigee_km":148.61813997482,"apogee_km":166.39247279126,"semimajor_km":6535.642306383,"source":"CELESTRAK","updated_at":"2026-09-06T09:00:20.090170Z"}}}